Date String (YYYY-MM-DD hh:mm:ss) UTC,Instrument flags,absolute air pressure of the measurement (hPa),sample flow rate (lpm),inlet stack bypass flow (lpm),air temperature of the measurement (°C),ambient temperature measured by the external sensor (°C),aerosol sample conditioner tube jacket temperature (°C),OPC LED temperature (°C),internal box temperature (°C),relative humidity of the measurement (%),span deviation,mass concentration of particles derived from Lorenz-Mie calculation of OPC scattering (μg/m³),mass concentration of particles derived from Lorenz-Mie calculation of OPC scattering (μg/m³),mass concentration of particles derived from Lorenz-Mie calculation of OPC scattering (μg/m³)
DateTimeUTC,F1_M11,P_M11,Q1_M11,Q2_M11,T1_M11,T2_M11,T3_M11,T4_M11,T5_M11,U1_M11,ZSPAN_M11,X2_M11,X0_M11,X1_M11
2023-10-27 01:00:00,SystemResetWarning,0829.1,5.00,000.00,027.4,025.9,000.0,036.0,029.0,19.9,0000.0,0001.55,0002.41,0001.36
2023-10-27 01:01:00,SystemResetWarning,0829.1,5.00,000.00,027.4,026.0,000.0,036.0,029.0,19.9,0000.0,0001.53,0002.36,0001.35
2023-10-27 01:02:00,SystemResetWarning,0829.2,4.99,000.00,027.4,026.0,000.0,036.0,029.0,19.9,0000.0,0001.52,0002.33,0001.35
2023-10-27 01:03:00,SystemResetWarning,0829.2,4.99,000.00,027.4,026.0,000.0,036.0,029.0,20.0,0000.0,0001.48,0002.16,0001.33
2023-10-27 01:04:00,SystemResetWarning,0829.3,5.00,000.00,027.4,026.0,000.0,036.0,029.0,19.9,0000.0,0001.47,0001.98,0001.33
2023-10-27 01:05:00,SystemResetWarning,0829.3,5.01,000.00,027.4,026.0,000.0,036.0,029.0,19.9,0000.0,0001.48,0002.00,0001.32
2023-10-27 01:06:00,SystemResetWarning,0829.3,5.00,000.00,027.4,026.1,000.0,036.0,029.0,19.9,0000.0,0001.47,0002.00,0001.32
2023-10-27 01:07:00,SystemResetWarning,0829.2,5.00,000.00,027.4,026.1,000.0,036.0,029.1,19.9,0000.0,0001.45,0001.97,0001.30
2023-10-27 01:08:00,SystemResetWarning,0829.2,5.00,000.00,027.4,026.0,000.0,036.0,029.0,19.9,0000.0,0001.46,0002.28,0001.30
2023-10-27 01:09:00,SystemResetWarning,0829.1,5.00,000.00,027.4,026.0,000.0,036.0,029.0,19.9,0000.0,0001.60,0002.61,0001.43
2023-10-27 01:10:00,SystemResetWarning,0829.1,5.00,000.00,027.4,026.0,000.0,036.0,029.0,19.9,0000.0,0001.72,0002.74,0001.54
2023-10-27 01:11:00,SystemResetWarning,0829.1,5.00,000.00,027.4,026.0,000.0,035.9,029.1,19.9,0000.0,0001.90,0002.87,0001.73
2023-10-27 01:12:00,SystemResetWarning,0829.1,4.99,000.00,027.4,026.0,000.0,035.9,029.1,19.9,0000.0,0001.97,0002.89,0001.79
2023-10-27 01:13:00,SystemResetWarning,0829.1,4.99,000.00,027.4,026.0,000.0,035.9,029.1,19.9,0000.0,0002.04,0003.04,0001.84
2023-10-27 01:14:00,SystemResetWarning,0829.1,5.00,000.00,027.4,026.0,000.0,035.9,029.0,19.9,0000.0,0002.16,0003.18,0001.95
2023-10-27 01:15:00,SystemResetWarning,0829.2,5.00,000.00,027.4,025.9,000.0,035.9,028.9,19.9,0000.0,0002.20,0003.22,0001.98
2023-10-27 01:16:00,SystemResetWarning,0829.4,5.00,000.00,027.3,025.9,000.0,035.9,028.9,19.9,0000.0,0002.20,0003.26,0001.98
2023-10-27 01:17:00,SystemResetWarning,0829.4,5.01,000.00,027.3,025.8,000.0,035.9,028.9,19.9,0000.0,0002.26,0003.45,0002.01
2023-10-27 01:18:00,SystemResetWarning,0829.3,5.00,000.00,027.3,025.8,000.0,035.9,028.9,19.9,0000.0,0002.30,0003.50,0002.05
2023-10-27 01:19:00,SystemResetWarning,0829.4,5.00,000.00,027.3,025.8,000.0,035.9,028.8,20.0,0000.0,0002.37,0003.42,0002.12
2023-10-27 01:20:00,SystemResetWarning,0829.3,5.01,000.00,027.3,025.8,000.0,035.9,028.9,20.0,0000.0,0002.34,0003.04,0002.13
2023-10-27 01:21:00,SystemResetWarning,0829.4,4.99,000.00,027.3,025.8,000.0,035.9,028.8,20.0,0000.0,0002.25,0002.92,0002.05
2023-10-27 01:22:00,SystemResetWarning,0829.4,4.99,000.00,027.3,025.7,000.0,035.9,028.8,20.1,0000.0,0002.10,0002.92,0001.91
2023-10-27 01:23:00,SystemResetWarning,0829.5,4.99,000.00,027.2,025.7,000.0,035.8,028.8,20.0,0000.0,0002.03,0003.11,0001.82
2023-10-27 01:24:00,SystemResetWarning,0829.6,5.01,000.00,027.2,025.7,000.0,035.8,028.8,20.0,0000.0,0002.04,0004.62,0001.86
2023-10-27 01:25:00,SystemResetWarning,0829.7,5.01,000.00,027.2,025.7,000.0,035.8,028.7,20.1,0000.0,0002.03,0004.80,0001.84
2023-10-27 01:26:00,SystemResetWarning,0829.7,5.00,000.00,027.2,025.7,000.0,035.8,028.7,20.1,0000.0,0002.01,0004.79,0001.81
2023-10-27 01:27:00,SystemResetWarning,0829.7,4.99,000.00,027.2,025.6,000.0,035.8,028.7,20.1,0000.0,0002.10,0004.93,0001.87
2023-10-27 01:28:00,SystemResetWarning,0829.7,5.00,000.00,027.1,025.5,000.0,035.8,028.6,20.1,0000.0,0002.12,0004.86,0001.90
2023-10-27 01:29:00,SystemResetWarning,0829.7,4.99,000.00,027.1,025.5,000.0,035.7,028.6,20.1,0000.0,0002.13,0004.89,0001.90
2023-10-27 01:30:00,SystemResetWarning,0829.7,5.00,000.00,027.1,025.5,000.0,035.7,028.6,20.0,0000.0,0002.14,0004.92,0001.91
2023-10-27 01:31:00,SystemResetWarning,0829.7,5.00,000.00,027.0,025.4,000.0,035.7,028.6,20.0,0000.0,0002.17,0005.07,0001.89
2023-10-27 01:32:00,SystemResetWarning,0829.7,5.00,000.00,027.0,025.4,000.0,035.7,028.6,20.0,0000.0,0002.22,0005.19,0001.91
2023-10-27 01:33:00,SystemResetWarning,0829.7,5.00,000.00,027.0,025.4,000.0,035.7,028.6,20.0,0000.0,0002.29,0005.24,0001.95
2023-10-27 01:34:00,SystemResetWarning,0829.7,5.00,000.00,027.0,025.4,000.0,035.6,028.5,20.0,0000.0,0002.35,0005.79,0001.99
2023-10-27 01:35:00,SystemResetWarning,0829.7,5.00,000.00,027.0,025.4,000.0,035.6,028.5,19.9,0000.0,0002.40,0005.39,0002.01
2023-10-27 01:36:00,SystemResetWarning,0829.6,5.00,000.00,027.0,025.3,000.0,035.6,028.5,19.9,0000.0,0002.42,0005.26,0002.04
2023-10-27 01:37:00,SystemResetWarning,0829.7,5.00,000.00,026.9,025.3,000.0,035.6,028.4,19.9,0000.0,0002.47,0005.38,0002.05
2023-10-27 01:38:00,SystemResetWarning,0829.6,5.00,000.00,026.9,025.3,000.0,035.6,028.4,19.8,0000.0,0002.48,0005.45,0002.05
2023-10-27 01:39:00,SystemResetWarning,0829.5,5.00,000.00,026.9,025.2,000.0,035.5,028.4,19.8,0000.0,0002.53,0005.64,0002.07
2023-10-27 01:40:00,SystemResetWarning,0829.4,5.00,000.00,026.8,025.2,000.0,035.5,028.4,19.8,0000.0,0002.59,0005.82,0002.11
2023-10-27 01:41:00,SystemResetWarning,0829.4,5.00,000.00,026.8,025.2,000.0,035.5,028.3,19.8,0000.0,0002.64,0007.11,0002.12
2023-10-27 01:42:00,SystemResetWarning,0829.5,5.00,000.00,026.8,025.2,000.0,035.5,028.3,19.8,0000.0,0002.65,0007.35,0002.13
2023-10-27 01:43:00,SystemResetWarning,0829.5,5.01,000.00,026.8,025.2,000.0,035.5,028.3,19.8,0000.0,0002.77,0007.93,0002.16
2023-10-27 01:44:00,SystemResetWarning,0829.6,5.00,000.00,026.8,025.2,000.0,035.4,028.3,19.8,0000.0,0002.87,0008.80,0002.18
2023-10-27 01:45:00,SystemResetWarning,0829.6,5.01,000.00,026.8,025.2,000.0,035.4,028.3,19.8,0000.0,0002.94,0008.74,0002.23
2023-10-27 01:46:00,SystemResetWarning,0829.6,5.00,000.00,026.8,025.2,000.0,035.4,028.3,19.8,0000.0,0002.96,0008.09,0002.24
2023-10-27 01:47:00,SystemResetWarning,0829.5,5.01,000.00,026.8,025.3,000.0,035.4,028.4,19.8,0000.0,0002.97,0008.50,0002.23
2023-10-27 01:48:00,SystemResetWarning,0829.6,5.00,000.00,026.8,025.3,000.0,035.4,028.4,19.8,0000.0,0002.98,0008.53,0002.23
2023-10-27 01:49:00,SystemResetWarning,0829.6,5.00,000.00,026.8,025.4,000.0,035.4,028.4,19.8,0000.0,0002.97,0008.55,0002.22
2023-10-27 01:50:00,SystemResetWarning,0829.7,4.99,000.00,026.8,025.4,000.0,035.4,028.4,19.8,0000.0,0002.93,0008.45,0002.20
2023-10-27 01:51:00,SystemResetWarning,0829.7,4.99,000.00,026.8,025.4,000.0,035.4,028.3,19.8,0000.0,0002.90,0008.42,0002.17
2023-10-27 01:52:00,SystemResetWarning,0829.7,5.00,000.00,026.8,025.3,000.0,035.4,028.3,19.8,0000.0,0002.86,0007.83,0002.13
2023-10-27 01:53:00,SystemResetWarning,0829.8,5.00,000.00,026.8,025.4,000.0,035.4,028.3,19.8,0000.0,0002.83,0007.71,0002.08
2023-10-27 01:54:00,SystemResetWarning,0829.8,5.00,000.00,026.8,025.3,000.0,035.4,028.3,19.8,0000.0,0002.71,0007.05,0002.03
2023-10-27 01:55:00,SystemResetWarning,0829.8,4.99,000.00,026.8,025.3,000.0,035.4,028.3,19.8,0000.0,0002.56,0005.57,0001.99
2023-10-27 01:56:00,SystemResetWarning,0829.7,5.00,000.00,026.7,025.3,000.0,035.3,028.3,19.8,0000.0,0002.49,0005.18,0001.95
2023-10-27 01:57:00,SystemResetWarning,0829.8,5.00,000.00,026.7,025.2,000.0,035.3,028.2,19.9,0000.0,0002.49,0006.16,0001.93
2023-10-27 01:58:00,SystemResetWarning,0829.7,5.01,000.00,026.7,025.2,000.0,035.3,028.2,19.9,0000.0,0002.46,0005.45,0001.92
2023-10-27 01:59:00,SystemResetWarning,0829.7,5.01,000.00,026.7,025.2,000.0,035.3,028.2,20.0,0000.0,0002.45,0005.21,0001.92
